Year,Month,Day,Hour,Minute,Value (Times are PST for temperature in C)
2015,06,22,00,00,17.90
2015,06,22,00,01,17.90
2015,06,22,00,02,17.80
2015,06,22,00,03,17.80
2015,06,22,00,04,17.70
2015,06,22,00,05,17.70
2015,06,22,00,06,17.60
2015,06,22,00,07,17.60
2015,06,22,00,08,17.50
2015,06,22,00,09,17.50
2015,06,22,00,10,17.40
2015,06,22,00,11,17.40
2015,06,22,00,12,17.30
2015,06,22,00,13,17.30
2015,06,22,00,14,17.30
2015,06,22,00,15,17.20
2015,06,22,00,16,17.20
2015,06,22,00,17,17.10
2015,06,22,00,18,17.10
2015,06,22,00,19,17.00
2015,06,22,00,20,17.00
2015,06,22,00,21,16.90
2015,06,22,00,22,16.90
2015,06,22,00,23,16.80
2015,06,22,00,24,16.80
2015,06,22,00,25,16.70
2015,06,22,00,26,16.70
2015,06,22,00,27,16.70
2015,06,22,00,28,16.60
2015,06,22,00,29,16.60
2015,06,22,00,30,16.50
2015,06,22,00,31,16.40
2015,06,22,00,32,16.40
2015,06,22,00,33,16.40
2015,06,22,00,34,16.40
2015,06,22,00,35,16.30
2015,06,22,00,36,16.30
2015,06,22,00,37,16.20
2015,06,22,00,38,16.20
2015,06,22,00,39,16.20
2015,06,22,00,40,16.10
2015,06,22,00,41,16.10
2015,06,22,00,42,16.10
2015,06,22,00,43,16.10
2015,06,22,00,44,16.00
2015,06,22,00,45,15.90
2015,06,22,00,46,15.90
2015,06,22,00,47,15.90
2015,06,22,00,48,15.80
2015,06,22,00,49,15.80
2015,06,22,00,50,15.80
2015,06,22,00,51,15.80
2015,06,22,00,52,15.80
2015,06,22,00,53,15.80
2015,06,22,00,54,15.80
2015,06,22,00,55,15.70
2015,06,22,00,56,15.70
2015,06,22,00,57,15.70
2015,06,22,00,58,15.70
2015,06,22,00,59,15.60
2015,06,22,01,00,15.70
2015,06,22,01,01,15.70
2015,06,22,01,02,15.70
2015,06,22,01,03,15.80
2015,06,22,01,04,15.80
2015,06,22,01,05,15.90
2015,06,22,01,06,16.00
2015,06,22,01,07,16.10
2015,06,22,01,08,16.10
2015,06,22,01,09,16.20
2015,06,22,01,10,16.20
2015,06,22,01,11,16.30
2015,06,22,01,12,16.30
2015,06,22,01,13,16.40
2015,06,22,01,14,16.40
2015,06,22,01,15,16.40
2015,06,22,01,16,16.40
2015,06,22,01,17,16.40
2015,06,22,01,18,16.40
2015,06,22,01,19,16.40
2015,06,22,01,20,16.40
2015,06,22,01,21,16.40
2015,06,22,01,22,16.40
2015,06,22,01,23,16.40
2015,06,22,01,24,16.40
2015,06,22,01,25,16.40
2015,06,22,01,26,16.40
2015,06,22,01,27,16.40
2015,06,22,01,28,16.40
2015,06,22,01,29,16.40
2015,06,22,01,30,16.40
2015,06,22,01,31,16.40
2015,06,22,01,32,16.30
2015,06,22,01,33,16.30
2015,06,22,01,34,16.20
2015,06,22,01,35,16.20
2015,06,22,01,36,16.10
2015,06,22,01,37,16.10
2015,06,22,01,38,16.10
2015,06,22,01,39,16.10
2015,06,22,01,40,16.10
2015,06,22,01,41,16.10
2015,06,22,01,42,16.10
2015,06,22,01,43,16.10
2015,06,22,01,44,16.10
2015,06,22,01,45,16.10
2015,06,22,01,46,16.00
2015,06,22,01,47,15.90
2015,06,22,01,48,15.90
2015,06,22,01,49,15.90
2015,06,22,01,50,15.90
2015,06,22,01,51,15.80
2015,06,22,01,52,15.80
2015,06,22,01,53,15.80
2015,06,22,01,54,15.80
2015,06,22,01,55,15.80
2015,06,22,01,56,15.80
2015,06,22,01,57,15.70
2015,06,22,01,58,15.70
2015,06,22,01,59,15.60
2015,06,22,02,00,15.60
2015,06,22,02,01,15.60
2015,06,22,02,02,15.60
2015,06,22,02,03,15.50
2015,06,22,02,04,15.50
2015,06,22,02,05,15.50
2015,06,22,02,06,15.50
2015,06,22,02,07,15.50
2015,06,22,02,08,15.50
2015,06,22,02,09,15.50
2015,06,22,02,10,15.50
2015,06,22,02,11,15.50
2015,06,22,02,12,15.40
2015,06,22,02,13,15.40
2015,06,22,02,14,15.40
2015,06,22,02,15,15.40
2015,06,22,02,16,15.50
2015,06,22,02,17,15.50
2015,06,22,02,18,15.50
2015,06,22,02,19,15.50
2015,06,22,02,20,15.50
2015,06,22,02,21,15.50
2015,06,22,02,22,15.50
2015,06,22,02,23,15.50
2015,06,22,02,24,15.50
2015,06,22,02,25,15.50
2015,06,22,02,26,15.40
2015,06,22,02,27,15.40
2015,06,22,02,28,15.40
2015,06,22,02,29,15.30
2015,06,22,02,30,15.30
2015,06,22,02,31,15.30
2015,06,22,02,32,15.30
2015,06,22,02,33,15.30
2015,06,22,02,34,15.30
2015,06,22,02,35,15.20
2015,06,22,02,36,15.20
2015,06,22,02,37,15.10
2015,06,22,02,38,15.10
2015,06,22,02,39,15.10
2015,06,22,02,40,15.00
2015,06,22,02,41,15.00
2015,06,22,02,42,14.90
2015,06,22,02,43,14.90
2015,06,22,02,44,14.90
2015,06,22,02,45,14.90
2015,06,22,02,46,14.80
2015,06,22,02,47,14.80
2015,06,22,02,48,14.80
2015,06,22,02,49,14.80
2015,06,22,02,50,14.80
2015,06,22,02,51,14.80
2015,06,22,02,52,14.80
2015,06,22,02,53,14.80
2015,06,22,02,54,14.70
2015,06,22,02,55,14.70
2015,06,22,02,56,14.70
2015,06,22,02,57,14.60
2015,06,22,02,58,14.60
2015,06,22,02,59,14.60
2015,06,22,03,00,14.60
2015,06,22,03,01,14.50
2015,06,22,03,02,14.50
2015,06,22,03,03,14.50
2015,06,22,03,04,14.50
2015,06,22,03,05,14.50
2015,06,22,03,06,14.40
2015,06,22,03,07,14.40
2015,06,22,03,08,14.40
2015,06,22,03,09,14.30
2015,06,22,03,10,14.30
2015,06,22,03,11,14.30
2015,06,22,03,12,14.30
2015,06,22,03,13,14.20
2015,06,22,03,14,14.20
2015,06,22,03,15,14.20
2015,06,22,03,16,14.20
2015,06,22,03,17,14.20
2015,06,22,03,18,14.20
2015,06,22,03,19,14.20
2015,06,22,03,20,14.20
2015,06,22,03,21,14.20
2015,06,22,03,22,14.10
2015,06,22,03,23,14.10
2015,06,22,03,24,14.10
2015,06,22,03,25,14.10
2015,06,22,03,26,14.10
2015,06,22,03,27,14.10
2015,06,22,03,28,14.10
2015,06,22,03,29,14.10
2015,06,22,03,30,14.00
2015,06,22,03,31,14.00
2015,06,22,03,32,14.00
2015,06,22,03,33,14.00
2015,06,22,03,34,14.00
2015,06,22,03,35,14.00
2015,06,22,03,36,14.00
2015,06,22,03,37,14.00
2015,06,22,03,38,14.00
2015,06,22,03,39,14.00
2015,06,22,03,40,14.00
2015,06,22,03,41,14.00
2015,06,22,03,42,14.00
2015,06,22,03,43,14.00
2015,06,22,03,44,14.00
2015,06,22,03,45,14.00
2015,06,22,03,46,14.00
2015,06,22,03,47,14.00
2015,06,22,03,48,14.00
2015,06,22,03,49,14.00
2015,06,22,03,50,14.10
2015,06,22,03,51,14.00
2015,06,22,03,52,14.00
2015,06,22,03,53,14.10
2015,06,22,03,54,14.10
2015,06,22,03,55,14.10
2015,06,22,03,56,14.10
2015,06,22,03,57,14.10
2015,06,22,03,58,14.10
2015,06,22,03,59,14.10
2015,06,22,04,00,14.10
2015,06,22,04,01,14.00
2015,06,22,04,02,14.00
2015,06,22,04,03,14.00
2015,06,22,04,04,14.00
2015,06,22,04,05,14.00
2015,06,22,04,06,14.00
2015,06,22,04,07,14.00
2015,06,22,04,08,13.90
2015,06,22,04,09,13.90
2015,06,22,04,10,13.90
2015,06,22,04,11,13.90
2015,06,22,04,12,13.90
2015,06,22,04,13,13.90
2015,06,22,04,14,13.90
2015,06,22,04,15,13.90
2015,06,22,04,16,13.90
2015,06,22,04,17,13.90
2015,06,22,04,18,13.90
2015,06,22,04,19,13.90
2015,06,22,04,20,13.90
2015,06,22,04,21,14.00
2015,06,22,04,22,14.00
2015,06,22,04,23,14.00
2015,06,22,04,24,14.00
2015,06,22,04,25,14.00
2015,06,22,04,26,14.00
2015,06,22,04,27,14.00
2015,06,22,04,28,14.00
2015,06,22,04,29,14.00
2015,06,22,04,30,14.00
2015,06,22,04,31,14.00
2015,06,22,04,32,14.00
2015,06,22,04,33,14.00
2015,06,22,04,34,14.10
2015,06,22,04,35,14.20
2015,06,22,04,36,14.20
2015,06,22,04,37,14.30
2015,06,22,04,38,14.30
2015,06,22,04,39,14.40
2015,06,22,04,40,14.40
2015,06,22,04,41,14.50
2015,06,22,04,42,14.50
2015,06,22,04,43,14.50
2015,06,22,04,44,14.50
2015,06,22,04,45,14.60
2015,06,22,04,46,14.60
2015,06,22,04,47,14.60
2015,06,22,04,48,14.60
2015,06,22,04,49,14.60
2015,06,22,04,50,14.60
2015,06,22,04,51,14.60
2015,06,22,04,52,14.60
2015,06,22,04,53,14.60
2015,06,22,04,54,14.60
2015,06,22,04,55,14.60
2015,06,22,04,56,14.60
2015,06,22,04,57,14.60
2015,06,22,04,58,14.60
2015,06,22,04,59,14.60
2015,06,22,05,00,14.60
2015,06,22,05,01,14.60
2015,06,22,05,02,14.60
2015,06,22,05,03,14.60
2015,06,22,05,04,14.60
2015,06,22,05,05,14.60
2015,06,22,05,06,14.60
2015,06,22,05,07,14.60
2015,06,22,05,08,14.60
2015,06,22,05,09,14.60
2015,06,22,05,10,14.60
2015,06,22,05,11,14.60
2015,06,22,05,12,14.60
2015,06,22,05,13,14.70
2015,06,22,05,14,14.70
2015,06,22,05,15,14.70
2015,06,22,05,16,14.70
2015,06,22,05,17,14.70
2015,06,22,05,18,14.70
2015,06,22,05,19,14.70
2015,06,22,05,20,14.70
2015,06,22,05,21,14.70
2015,06,22,05,22,14.70
2015,06,22,05,23,14.60
2015,06,22,05,24,14.60
2015,06,22,05,25,14.60
2015,06,22,05,26,14.60
2015,06,22,05,27,14.60
2015,06,22,05,28,14.60
2015,06,22,05,29,14.60
2015,06,22,05,30,14.60
2015,06,22,05,31,14.60
2015,06,22,05,32,14.60
2015,06,22,05,33,14.60
2015,06,22,05,34,14.60
2015,06,22,05,35,14.60
2015,06,22,05,36,14.70
2015,06,22,05,37,14.70
2015,06,22,05,38,14.70
2015,06,22,05,39,14.70
2015,06,22,05,40,14.70
2015,06,22,05,41,14.70
2015,06,22,05,42,14.70
2015,06,22,05,43,14.70
2015,06,22,05,44,14.70
2015,06,22,05,45,14.70
2015,06,22,05,46,14.70
2015,06,22,05,47,14.80
2015,06,22,05,48,14.80
2015,06,22,05,49,14.80
2015,06,22,05,50,14.70
2015,06,22,05,51,14.70
2015,06,22,05,52,14.70
2015,06,22,05,53,14.70
2015,06,22,05,54,14.70
2015,06,22,05,55,14.70
2015,06,22,05,56,14.80
2015,06,22,05,57,14.80
2015,06,22,05,58,14.80
2015,06,22,05,59,14.80
2015,06,22,06,00,14.80
2015,06,22,06,01,14.80
2015,06,22,06,02,14.80
2015,06,22,06,03,14.80
2015,06,22,06,04,14.90
2015,06,22,06,05,14.90
2015,06,22,06,06,15.00
2015,06,22,06,07,15.00
2015,06,22,06,08,15.00
2015,06,22,06,09,15.10
2015,06,22,06,10,15.10
2015,06,22,06,11,15.10
2015,06,22,06,12,15.10
2015,06,22,06,13,15.20
2015,06,22,06,14,15.20
2015,06,22,06,15,15.20
2015,06,22,06,16,15.20
2015,06,22,06,17,15.20
2015,06,22,06,18,15.20
2015,06,22,06,19,15.20
2015,06,22,06,20,15.20
2015,06,22,06,21,15.20
2015,06,22,06,22,15.30
2015,06,22,06,23,15.30
2015,06,22,06,24,15.30
2015,06,22,06,25,15.30
2015,06,22,06,26,15.30
2015,06,22,06,27,15.30
2015,06,22,06,28,15.30
2015,06,22,06,29,15.30
2015,06,22,06,30,15.30
2015,06,22,06,31,15.30
2015,06,22,06,32,15.30
2015,06,22,06,33,15.30
2015,06,22,06,34,15.30
2015,06,22,06,35,15.30
2015,06,22,06,36,15.30
2015,06,22,06,37,15.40
2015,06,22,06,38,15.40
2015,06,22,06,39,15.40
2015,06,22,06,40,15.40
2015,06,22,06,41,15.40
2015,06,22,06,42,15.40
2015,06,22,06,43,15.40
2015,06,22,06,44,15.40
2015,06,22,06,45,15.40
2015,06,22,06,46,15.50
2015,06,22,06,47,15.50
2015,06,22,06,48,15.50
2015,06,22,06,49,15.50
2015,06,22,06,50,15.50
2015,06,22,06,51,15.50
2015,06,22,06,52,15.50
2015,06,22,06,53,15.50
2015,06,22,06,54,15.50
2015,06,22,06,55,15.60
2015,06,22,06,56,15.60
2015,06,22,06,57,15.60
2015,06,22,06,58,15.60
2015,06,22,06,59,15.60
2015,06,22,07,00,15.60
2015,06,22,07,01,15.70
2015,06,22,07,02,15.70
2015,06,22,07,03,15.70
2015,06,22,07,04,15.70
2015,06,22,07,05,15.70
2015,06,22,07,06,15.80
2015,06,22,07,07,15.80
2015,06,22,07,08,15.80
2015,06,22,07,09,15.90
2015,06,22,07,10,15.90
2015,06,22,07,11,16.00
2015,06,22,07,12,16.10
2015,06,22,07,13,16.10
2015,06,22,07,14,16.20
2015,06,22,07,15,16.20
2015,06,22,07,16,16.30
2015,06,22,07,17,16.30
2015,06,22,07,18,16.40
2015,06,22,07,19,16.50
2015,06,22,07,20,16.60
2015,06,22,07,21,16.60
2015,06,22,07,22,16.70
2015,06,22,07,23,16.70
2015,06,22,07,24,16.80
2015,06,22,07,25,16.90
2015,06,22,07,26,16.90
2015,06,22,07,27,17.00
2015,06,22,07,28,17.00
2015,06,22,07,29,17.10
2015,06,22,07,30,17.10
2015,06,22,07,31,17.00
2015,06,22,07,32,17.00
2015,06,22,07,33,17.00
2015,06,22,07,34,16.90
2015,06,22,07,35,16.90
2015,06,22,07,36,16.90
2015,06,22,07,37,16.90
2015,06,22,07,38,16.80
2015,06,22,07,39,16.80
2015,06,22,07,40,16.80
2015,06,22,07,41,16.80
2015,06,22,07,42,16.90
2015,06,22,07,43,16.90
2015,06,22,07,44,17.00
2015,06,22,07,45,17.10
2015,06,22,07,46,17.30
2015,06,22,07,47,17.30
2015,06,22,07,48,17.40
2015,06,22,07,49,17.40
2015,06,22,07,50,17.40
2015,06,22,07,51,17.40
2015,06,22,07,52,17.50
2015,06,22,07,53,17.50
2015,06,22,07,54,17.50
2015,06,22,07,55,17.50
2015,06,22,07,56,17.40
2015,06,22,07,57,17.40
2015,06,22,07,58,17.40
2015,06,22,07,59,17.40
2015,06,22,08,00,17.40
2015,06,22,08,01,17.40
2015,06,22,08,02,17.40
2015,06,22,08,03,17.40
2015,06,22,08,04,17.40
2015,06,22,08,05,17.40
2015,06,22,08,06,17.50
2015,06,22,08,07,17.60
2015,06,22,08,08,17.60
2015,06,22,08,09,17.60
2015,06,22,08,10,17.70
2015,06,22,08,11,17.70
2015,06,22,08,12,17.70
2015,06,22,08,13,17.80
2015,06,22,08,14,17.90
2015,06,22,08,15,18.00
2015,06,22,08,16,18.10
2015,06,22,08,17,18.20
2015,06,22,08,18,18.20
2015,06,22,08,19,18.20
2015,06,22,08,20,18.20
2015,06,22,08,21,18.20
2015,06,22,08,22,18.20
2015,06,22,08,23,18.30
2015,06,22,08,24,18.30
2015,06,22,08,25,18.30
2015,06,22,08,26,18.30
2015,06,22,08,27,18.40
2015,06,22,08,28,18.40
2015,06,22,08,29,18.50
2015,06,22,08,30,18.50
2015,06,22,08,31,18.60
2015,06,22,08,32,18.70
2015,06,22,08,33,18.70
2015,06,22,08,34,18.80
2015,06,22,08,35,18.90
2015,06,22,08,36,18.90
2015,06,22,08,37,18.90
2015,06,22,08,38,19.00
2015,06,22,08,39,19.10
2015,06,22,08,40,19.10
2015,06,22,08,41,19.20
2015,06,22,08,42,19.20
2015,06,22,08,43,19.20
2015,06,22,08,44,19.30
2015,06,22,08,45,19.40
2015,06,22,08,46,19.40
2015,06,22,08,47,19.50
2015,06,22,08,48,19.60
2015,06,22,08,49,19.70
2015,06,22,08,50,19.70
2015,06,22,08,51,19.70
2015,06,22,08,52,19.80
2015,06,22,08,53,19.80
2015,06,22,08,54,19.80
2015,06,22,08,55,19.80
2015,06,22,08,56,19.80
2015,06,22,08,57,19.80
2015,06,22,08,58,19.70
2015,06,22,08,59,19.70
2015,06,22,09,00,19.70
2015,06,22,09,01,19.70
2015,06,22,09,02,19.70
2015,06,22,09,03,19.80
2015,06,22,09,04,19.80
2015,06,22,09,05,19.80
2015,06,22,09,06,19.80
2015,06,22,09,07,19.80
2015,06,22,09,08,19.80
2015,06,22,09,09,19.90
2015,06,22,09,10,19.90
2015,06,22,09,11,19.90
2015,06,22,09,12,20.00
2015,06,22,09,13,20.10
2015,06,22,09,14,20.10
2015,06,22,09,15,20.10
2015,06,22,09,16,20.10
2015,06,22,09,17,20.20
2015,06,22,09,18,20.20
2015,06,22,09,19,20.20
2015,06,22,09,20,20.10
2015,06,22,09,21,20.00
2015,06,22,09,22,19.80
2015,06,22,09,23,19.70
2015,06,22,09,24,19.70
2015,06,22,09,25,19.50
2015,06,22,09,26,19.50
2015,06,22,09,27,19.50
2015,06,22,09,28,19.40
2015,06,22,09,29,19.40
2015,06,22,09,30,19.30
2015,06,22,09,31,19.30
2015,06,22,09,32,19.30
2015,06,22,09,33,19.30
2015,06,22,09,34,19.40
2015,06,22,09,35,19.40
2015,06,22,09,36,19.50
2015,06,22,09,37,19.50
2015,06,22,09,38,19.50
2015,06,22,09,39,19.40
2015,06,22,09,40,19.40
2015,06,22,09,41,19.40
2015,06,22,09,42,19.50
2015,06,22,09,43,19.50
2015,06,22,09,44,19.30
2015,06,22,09,45,19.10
2015,06,22,09,46,19.10
2015,06,22,09,47,19.10
2015,06,22,09,48,19.10
2015,06,22,09,49,19.10
2015,06,22,09,50,19.30
2015,06,22,09,51,19.40
2015,06,22,09,52,19.50
2015,06,22,09,53,19.60
2015,06,22,09,54,19.80
2015,06,22,09,55,19.90
2015,06,22,09,56,20.00
2015,06,22,09,57,20.10
2015,06,22,09,58,20.20
2015,06,22,09,59,20.30
2015,06,22,10,00,20.40
2015,06,22,10,01,20.50
2015,06,22,10,02,20.50
2015,06,22,10,03,20.50
2015,06,22,10,04,20.50
2015,06,22,10,05,20.60
2015,06,22,10,06,20.70
2015,06,22,10,07,20.70
2015,06,22,10,08,20.60
2015,06,22,10,09,20.60
2015,06,22,10,10,20.50
2015,06,22,10,11,20.50
2015,06,22,10,12,20.60
2015,06,22,10,13,20.60
2015,06,22,10,14,20.60
2015,06,22,10,15,20.60
2015,06,22,10,16,20.70
2015,06,22,10,17,20.70
2015,06,22,10,18,20.70
2015,06,22,10,19,20.50
2015,06,22,10,20,20.50
2015,06,22,10,21,20.40
2015,06,22,10,22,20.40
2015,06,22,10,23,20.50
2015,06,22,10,24,20.60
2015,06,22,10,25,20.80
2015,06,22,10,26,20.80
2015,06,22,10,27,20.70
2015,06,22,10,28,20.50
2015,06,22,10,29,20.40
2015,06,22,10,30,20.40
2015,06,22,10,31,20.50
2015,06,22,10,32,20.50
2015,06,22,10,33,20.60
2015,06,22,10,34,20.60
2015,06,22,10,35,20.60
2015,06,22,10,36,20.60
2015,06,22,10,37,20.60
2015,06,22,10,38,20.60
2015,06,22,10,39,20.60
2015,06,22,10,40,20.60
2015,06,22,10,41,20.50
2015,06,22,10,42,20.50
2015,06,22,10,43,20.50
2015,06,22,10,44,20.50
2015,06,22,10,45,20.40
2015,06,22,10,46,20.40
2015,06,22,10,47,20.50
2015,06,22,10,48,20.50
2015,06,22,10,49,20.50
2015,06,22,10,50,20.40
2015,06,22,10,51,20.40
2015,06,22,10,52,20.20
2015,06,22,10,53,20.20
2015,06,22,10,54,20.20
2015,06,22,10,55,20.20
2015,06,22,10,56,20.20
2015,06,22,10,57,20.20
2015,06,22,10,58,20.20
2015,06,22,10,59,20.20
2015,06,22,11,00,20.20
2015,06,22,11,01,20.40
2015,06,22,11,02,20.40
2015,06,22,11,03,20.40
2015,06,22,11,04,20.40
2015,06,22,11,05,20.50
2015,06,22,11,06,20.50
2015,06,22,11,07,20.50
2015,06,22,11,08,20.60
2015,06,22,11,09,20.80
2015,06,22,11,10,20.90
2015,06,22,11,11,20.90
2015,06,22,11,12,20.80
2015,06,22,11,13,20.80
2015,06,22,11,14,20.70
2015,06,22,11,15,20.70
2015,06,22,11,16,20.70
2015,06,22,11,17,20.80
2015,06,22,11,18,20.80
2015,06,22,11,19,20.90
2015,06,22,11,20,21.00
2015,06,22,11,21,20.90
2015,06,22,11,22,20.90
2015,06,22,11,23,21.00
2015,06,22,11,24,21.00
2015,06,22,11,25,20.90
2015,06,22,11,26,20.80
2015,06,22,11,27,21.00
2015,06,22,11,28,21.00
2015,06,22,11,29,21.20
2015,06,22,11,30,21.30
2015,06,22,11,31,21.30
2015,06,22,11,32,21.30
2015,06,22,11,33,21.30
2015,06,22,11,34,21.30
2015,06,22,11,35,21.20
2015,06,22,11,36,21.00
2015,06,22,11,37,21.00
2015,06,22,11,38,21.00
2015,06,22,11,39,21.00
2015,06,22,11,40,21.10
2015,06,22,11,41,21.20
2015,06,22,11,42,21.20
2015,06,22,11,43,21.30
2015,06,22,11,44,21.30
2015,06,22,11,45,21.30
2015,06,22,11,46,21.30
2015,06,22,11,47,21.30
2015,06,22,11,48,21.30
2015,06,22,11,49,21.30
2015,06,22,11,50,21.30
2015,06,22,11,51,21.40
2015,06,22,11,52,21.50
2015,06,22,11,53,21.60
2015,06,22,11,54,21.60
2015,06,22,11,55,21.60
2015,06,22,11,56,21.60
2015,06,22,11,57,21.60
2015,06,22,11,58,21.60
2015,06,22,11,59,21.60
2015,06,22,12,00,21.60
2015,06,22,12,01,21.60
2015,06,22,12,02,21.70
2015,06,22,12,03,21.70
2015,06,22,12,04,21.60
2015,06,22,12,05,21.60
2015,06,22,12,06,21.50
2015,06,22,12,07,21.30
2015,06,22,12,08,21.40
2015,06,22,12,09,21.40
2015,06,22,12,10,21.40
2015,06,22,12,11,21.50
2015,06,22,12,12,21.50
2015,06,22,12,13,21.40
2015,06,22,12,14,21.40
2015,06,22,12,15,21.50
2015,06,22,12,16,21.60
2015,06,22,12,17,21.60
2015,06,22,12,18,21.90
2015,06,22,12,19,22.10
2015,06,22,12,20,22.10
2015,06,22,12,21,22.20
2015,06,22,12,22,22.20
2015,06,22,12,23,22.20
2015,06,22,12,24,22.20
2015,06,22,12,25,22.20
2015,06,22,12,26,22.30
2015,06,22,12,27,22.30
2015,06,22,12,28,22.40
2015,06,22,12,29,22.30
2015,06,22,12,30,22.10
2015,06,22,12,31,22.10
2015,06,22,12,32,22.10
2015,06,22,12,33,22.20
2015,06,22,12,34,22.20
2015,06,22,12,35,22.20
2015,06,22,12,36,22.10
2015,06,22,12,37,22.10
2015,06,22,12,38,22.10
2015,06,22,12,39,22.10
2015,06,22,12,40,22.00
2015,06,22,12,41,22.00
2015,06,22,12,42,22.00
2015,06,22,12,43,21.90
2015,06,22,12,44,21.80
2015,06,22,12,45,21.60
2015,06,22,12,46,21.50
2015,06,22,12,47,21.40
2015,06,22,12,48,21.50
2015,06,22,12,49,21.60
2015,06,22,12,50,21.60
2015,06,22,12,51,21.60
2015,06,22,12,52,21.70
2015,06,22,12,53,21.80
2015,06,22,12,54,21.80
2015,06,22,12,55,21.70
2015,06,22,12,56,21.70
2015,06,22,12,57,21.60
2015,06,22,12,58,21.60
2015,06,22,12,59,21.70
2015,06,22,13,00,21.80
2015,06,22,13,01,21.80
2015,06,22,13,02,21.80
2015,06,22,13,03,21.80
2015,06,22,13,04,21.70
2015,06,22,13,05,21.60
2015,06,22,13,06,21.60
2015,06,22,13,07,21.60
2015,06,22,13,08,21.60
2015,06,22,13,09,21.60
2015,06,22,13,10,21.70
2015,06,22,13,11,21.80
2015,06,22,13,12,21.80
2015,06,22,13,13,21.70
2015,06,22,13,14,21.30
2015,06,22,13,15,21.00
2015,06,22,13,16,20.80
2015,06,22,13,17,20.60
2015,06,22,13,18,20.40
2015,06,22,13,19,20.10
2015,06,22,13,20,19.80
2015,06,22,13,21,19.50
2015,06,22,13,22,19.10
2015,06,22,13,23,18.70
2015,06,22,13,24,18.60
2015,06,22,13,25,18.50
2015,06,22,13,26,18.60
2015,06,22,13,27,18.70
2015,06,22,13,28,18.90
2015,06,22,13,29,19.10
2015,06,22,13,30,19.30
2015,06,22,13,31,19.50
2015,06,22,13,32,19.80
2015,06,22,13,33,20.10
2015,06,22,13,34,20.30
2015,06,22,13,35,20.50
2015,06,22,13,36,20.80
2015,06,22,13,37,20.90
2015,06,22,13,38,21.00
2015,06,22,13,39,21.20
2015,06,22,13,40,21.50
2015,06,22,13,41,21.80
2015,06,22,13,42,22.00
2015,06,22,13,43,22.20
2015,06,22,13,44,22.30
2015,06,22,13,45,22.30
2015,06,22,13,46,22.30
2015,06,22,13,47,22.40
2015,06,22,13,48,22.40
2015,06,22,13,49,22.50
2015,06,22,13,50,22.50
2015,06,22,13,51,22.50
2015,06,22,13,52,22.50
2015,06,22,13,53,22.50
2015,06,22,13,54,22.50
2015,06,22,13,55,22.50
2015,06,22,13,56,22.50
2015,06,22,13,57,22.40
2015,06,22,13,58,22.50
2015,06,22,13,59,22.50
2015,06,22,14,00,22.50
2015,06,22,14,01,22.50
2015,06,22,14,02,22.50
2015,06,22,14,03,22.60
2015,06,22,14,04,22.60
2015,06,22,14,05,22.60
2015,06,22,14,06,22.70
2015,06,22,14,07,22.70
2015,06,22,14,08,22.80
2015,06,22,14,09,22.90
2015,06,22,14,10,22.90
2015,06,22,14,11,22.90
2015,06,22,14,12,22.90
2015,06,22,14,13,22.90
2015,06,22,14,14,22.90
2015,06,22,14,15,22.90
2015,06,22,14,16,22.90
2015,06,22,14,17,22.80
2015,06,22,14,18,22.70
2015,06,22,14,19,22.70
2015,06,22,14,20,22.70
2015,06,22,14,21,22.80
2015,06,22,14,22,22.80
2015,06,22,14,23,22.80
2015,06,22,14,24,22.80
2015,06,22,14,25,22.80
2015,06,22,14,26,22.80
2015,06,22,14,27,22.90
2015,06,22,14,28,22.90
2015,06,22,14,29,22.90
2015,06,22,14,30,22.90
2015,06,22,14,31,22.80
2015,06,22,14,32,22.70
2015,06,22,14,33,22.60
2015,06,22,14,34,22.50
2015,06,22,14,35,22.40
2015,06,22,14,36,22.30
2015,06,22,14,37,22.30
2015,06,22,14,38,22.30
2015,06,22,14,39,22.40
2015,06,22,14,40,22.40
2015,06,22,14,41,22.30
2015,06,22,14,42,22.30
2015,06,22,14,43,22.30
2015,06,22,14,44,22.40
2015,06,22,14,45,22.50
2015,06,22,14,46,22.60
2015,06,22,14,47,22.70
2015,06,22,14,48,22.80
2015,06,22,14,49,22.80
2015,06,22,14,50,22.80
2015,06,22,14,51,22.70
2015,06,22,14,52,22.70
2015,06,22,14,53,22.70
2015,06,22,14,54,22.80
2015,06,22,14,55,22.80
2015,06,22,14,56,22.90
2015,06,22,14,57,22.90
2015,06,22,14,58,22.90
2015,06,22,14,59,22.90
2015,06,22,15,00,22.90
2015,06,22,15,01,23.00
2015,06,22,15,02,23.10
2015,06,22,15,03,23.20
2015,06,22,15,04,23.30
2015,06,22,15,05,23.30
2015,06,22,15,06,23.30
2015,06,22,15,07,23.30
2015,06,22,15,08,23.40
2015,06,22,15,09,23.40
2015,06,22,15,10,23.60
2015,06,22,15,11,23.60
2015,06,22,15,12,23.60
2015,06,22,15,13,23.70
2015,06,22,15,14,23.70
2015,06,22,15,15,23.70
2015,06,22,15,16,23.70
2015,06,22,15,17,23.70
2015,06,22,15,18,23.70
2015,06,22,15,19,23.80
2015,06,22,15,20,23.80
2015,06,22,15,21,23.80
2015,06,22,15,22,23.90
2015,06,22,15,23,24.00
2015,06,22,15,24,24.10
2015,06,22,15,25,24.10
2015,06,22,15,26,24.20
2015,06,22,15,27,24.20
2015,06,22,15,28,24.30
2015,06,22,15,29,24.40
2015,06,22,15,30,24.40
2015,06,22,15,31,24.40
2015,06,22,15,32,24.40
2015,06,22,15,33,24.40
2015,06,22,15,34,24.50
2015,06,22,15,35,24.50
2015,06,22,15,36,24.60
2015,06,22,15,37,24.70
2015,06,22,15,38,24.80
2015,06,22,15,39,24.80
2015,06,22,15,40,24.80
2015,06,22,15,41,24.80
2015,06,22,15,42,24.70
2015,06,22,15,43,24.70
2015,06,22,15,44,24.70
2015,06,22,15,45,24.70
2015,06,22,15,46,24.60
2015,06,22,15,47,24.60
2015,06,22,15,48,24.60
2015,06,22,15,49,24.60
2015,06,22,15,50,24.70
2015,06,22,15,51,24.70
2015,06,22,15,52,24.70
2015,06,22,15,53,24.70
2015,06,22,15,54,24.80
2015,06,22,15,55,24.80
2015,06,22,15,56,24.80
2015,06,22,15,57,24.80
2015,06,22,15,58,24.80
2015,06,22,15,59,24.80
2015,06,22,16,00,24.90
2015,06,22,16,01,24.90
2015,06,22,16,02,25.00
2015,06,22,16,03,25.00
2015,06,22,16,04,25.10
2015,06,22,16,05,25.10
2015,06,22,16,06,25.10
2015,06,22,16,07,25.20
2015,06,22,16,08,25.20
2015,06,22,16,09,25.10
2015,06,22,16,10,25.20
2015,06,22,16,11,25.00
2015,06,22,16,12,25.00
2015,06,22,16,13,25.00
2015,06,22,16,14,24.90
2015,06,22,16,15,24.90
2015,06,22,16,16,24.80
2015,06,22,16,17,24.80
2015,06,22,16,18,24.80
2015,06,22,16,19,24.80
2015,06,22,16,20,24.80
2015,06,22,16,21,24.80
2015,06,22,16,22,24.90
2015,06,22,16,23,25.00
2015,06,22,16,24,25.00
2015,06,22,16,25,25.10
2015,06,22,16,26,25.10
2015,06,22,16,27,25.10
2015,06,22,16,28,25.00
2015,06,22,16,29,25.10
2015,06,22,16,30,25.10
2015,06,22,16,31,25.10
2015,06,22,16,32,25.20
2015,06,22,16,33,25.10
2015,06,22,16,34,25.00
2015,06,22,16,35,24.90
2015,06,22,16,36,24.90
2015,06,22,16,37,24.90
2015,06,22,16,38,24.90
2015,06,22,16,39,24.90
2015,06,22,16,40,24.90
2015,06,22,16,41,24.90
2015,06,22,16,42,25.00
2015,06,22,16,43,25.00
2015,06,22,16,44,25.00
2015,06,22,16,45,25.00
2015,06,22,16,46,25.00
2015,06,22,16,47,25.00
2015,06,22,16,48,24.90
2015,06,22,16,49,24.90
2015,06,22,16,50,25.00
2015,06,22,16,51,25.10
2015,06,22,16,52,25.20
2015,06,22,16,53,25.20
2015,06,22,16,54,25.30
2015,06,22,16,55,25.30
2015,06,22,16,56,25.30
2015,06,22,16,57,25.30
2015,06,22,16,58,25.30
2015,06,22,16,59,25.30
2015,06,22,17,00,25.30
2015,06,22,17,01,25.20
2015,06,22,17,02,25.20
2015,06,22,17,03,25.20
2015,06,22,17,04,25.10
2015,06,22,17,05,25.00
2015,06,22,17,06,24.90
2015,06,22,17,07,25.00
2015,06,22,17,08,25.10
2015,06,22,17,09,25.20
2015,06,22,17,10,25.30
2015,06,22,17,11,25.30
2015,06,22,17,12,25.30
2015,06,22,17,13,25.40
2015,06,22,17,14,25.40
2015,06,22,17,15,25.30
2015,06,22,17,16,25.30
2015,06,22,17,17,25.20
2015,06,22,17,18,25.20
2015,06,22,17,19,25.20